LEAS

Asturias

Airport
ICAO code
LEAS
Summary
ICAO Region
EUR
ICAO Territory
Location

Asturias, Spain,

Coordinates
43° 33' 34" N , 6° 1' 52" W
KCC
Airport BS
Bird Strike
Airport WX
Fog
Metar
Observation
LEAS 032030Z 13004KT 080V160 CAVOK 07/05 Q1035 NOSIG
Station
Asturias / Aviles
Date/Time
2023-02-03 20:30:00
Wind direction
130°
Wind speed
04 kts
Lowest cloud amount
clouds and visibility OK
Temperature
7°C
Dew point
5°C
Humidity
87%
QNH
1035 hPa
Weather condition
n/a

Description

International airport serving Asturias in northern spain.

Climatology

Temperate Marine climate/Oceanic climate (Köppen climate classification Cfb). Moderately cool summer and comparatively warm winter with a temperature range of only 14°C. Prevailing south-westerly winds from the Atlantic Ocean.

Runways

Designator Length Width Surface Rops
11/29 2200 45 ASP Yes/Yes

Airport map

Aerial View

SKYbrary Partners:

Safety knowledge contributed by: